Online Auction of Sound, Stage, and Lighting Equipment for Sale in Orange County, CA

Lot #0101: Show Solutions 10'x1' Aluminum Stage Truss With 6 Way Truss Block

Bidding is closed.
High Bid:$541.12
NA
Bidding Ended: Thu, Jan 10  10:05:29 am PT
High Bidder: pixelwerks
Bid Increment: $10.00
Starting Bid: $5.00
Item Location: Fullerton, CA 92833
Item has been viewed 1,204 times.

Show Solutions 10'x1' Aluminum Stage Truss With 6 Way Truss Block

Bid Date Bid Amount Bidder
Jan 10, 2019 - 10:03:29 AM $541.12 ipixelwerks
Jan 10, 2019 - 10:03:29 AM $531.12 ilakinetics
Jan 10, 2019 - 10:01:34 AM $415.00 ilakinetics
Jan 10, 2019 - 10:01:34 AM $405.00 ilighttek
Jan 10, 2019 - 10:00:05 AM $385.00 ilakinetics
Jan 10, 2019 - 10:00:05 AM $375.00 ilighttek
Jan 10, 2019 - 9:59:16 AM $336.00 ilakinetics
Jan 10, 2019 - 9:59:16 AM $326.00 ioldboy
Jan 10, 2019 - 9:58:37 AM $325.00 ioldboy
Jan 10, 2019 - 9:58:37 AM $315.00 ilighttek
Jan 10, 2019 - 9:44:03 AM $285.00 ioldboy
Jan 10, 2019 - 9:44:03 AM $275.00 ilighttek
Jan 10, 2019 - 12:45:55 AM $260.00 ilighttek
Jan 10, 2019 - 12:45:55 AM $250.00 iHALO479
Jan 9, 2019 - 10:28:53 PM $240.00 ilighttek
Jan 9, 2019 - 8:52:46 PM $230.00 isosdjing
Jan 9, 2019 - 2:24:33 PM $220.00 ilighttek
Jan 9, 2019 - 12:11:57 AM $210.00 ivietbaytivi
Jan 8, 2019 - 12:34:46 PM $200.00 ipixelwerks
Jan 8, 2019 - 12:34:47 PM $200.00 iacmefx
Jan 8, 2019 - 11:54:39 AM $170.00 ipixelwerks
Jan 8, 2019 - 11:54:39 AM $160.00 iacmefx
Jan 8, 2019 - 11:53:00 AM $115.00 ipixelwerks
Jan 8, 2019 - 11:53:00 AM $105.00 iacmefx
Jan 8, 2019 - 11:52:32 AM $70.00 ipixelwerks
Jan 8, 2019 - 11:52:32 AM $65.00 iacmefx
Jan 8, 2019 - 11:46:25 AM $60.00 ipixelwerks
Jan 8, 2019 - 11:46:25 AM $55.00 iacmefx
Jan 8, 2019 - 11:46:08 AM $20.00 ipixelwerks
Jan 8, 2019 - 11:46:08 AM $15.00 iacmefx
Jan 8, 2019 - 10:08:53 AM $5.00 ipixelwerks
Click on any picture to see a larger image.